Dewpoint
19 24 26 28 28 29 29 30 31 32 32 31 29 29 28 30 31 33 33 31 30 28 27 27 26 25 23 23 22 21 19 21 25 18 18 22 32 23 27 28 29 22 27
21 25 27 28 28 29 30 31 31 31 31 31 32 31 30 31 31 32 31 31 30 28 27 26 25 25 23 21 21 21 17 18 25 19 19 7 13 17 24 25 28 22 25
18 25 27 28 28 28 30 31 31 30 32 33 33 33 33 32 31 31 31 31 30 29 28 26 25 25 23 21 22 21 19 14 19 24 15 6 3 17 19 20 25 21 24
21 25 27 27 28 28 29 30 31 33 34 34 32 30 29 29 31 31 32 32 30 28 29 27 26 25 23 21 22 22 22 19 16 20 24 24 22 13 9 18 20 20 22
20 24 26 27 28 27 29 32 33 33 34 33 32 31 31 31 32 31 30 29 29 28 27 27 26 25 23 21 20 20 20 22 19 20 20 21 25 24 21 13 16 20 22
17 25 26 27 28 30 32 33 33 32 32 31 31 31 30 31 30 29 28 29 29 27 26 27 26 24 22 21 20 21 20 20 21 22 22 20 17 19 19 18 19 20 21
19 23 25 26 29 31 33 33 32 31 30 29 29 28 28 28 27 27 27 27 27 26 25 25 25 24 23 21 20 20 20 20 19 19 19 22 22 24 24 22 22 21 24
21 21 24 26 30 32 33 32 32 31 31 30 29 29 28 28 28 28 28 27 27 26 26 25 25 25 24 22 20 20 20 20 20 20 20 21 22 24 24 23 22 19 21
27 26 26 28 31 33 33 32 32 31 30 30 30 29 29 29 28 28 28 27 27 27 26 25 24 24 23 22 22 20 19 19 19 20 20 20 20 22 23 25 25 22 17
28 28 29 32 34 34 34 33 32 30 30 29 28 28 29 30 29 29 28 27 27 26 26 25 25 24 24 24 22 22 21 20 20 20 20 20 21 21 22 24 25 25 23
27 30 31 32 32 31 30 29 28 27 27 28 27 27 27 27 27 26 26 26 27 26 26 26 26 25 25 25 24 23 22 21 21 21 20 20 20 20 21 22 24 24 25
24 25 26 26 26 26 26 26 25 25 25 26 25 25 25 25 25 25 26 27 26 27 27 26 26 26 26 25 25 24 23 22 22 22 21 21 20 20 21 21 21 22 24
26 26 26 25 25 27 29 27 26 25 26 25 24 23 23 24 25 25 26 26 26 26 26 26 26 25 25 25 25 25 24 24 23 23 22 22 21 21 21 21 21 22 22
28 29 29 30 31 29 25 25 25 25 25 24 22 21 22 23 24 25 25 25 25 24 25 25 24 24 24 25 25 25 24 24 24 23 23 22 22 21 21 21 21 21 21
29 29 29 26 24 24 24 24 24 25 25 23 21 20 22 23 24 24 23 23 23 24 24 23 22 23 24 24 24 24 24 24 24 24 24 24 24 24 25 23 21 21 21
28 28 26 24 23 23 24 24 24 24 23 21 19 20 21 22 22 22 21 22 23 23 23 21 21 23 23 22 22 22 22 22 22 22 22 24 25 25 26 25 25 26 23
27 26 24 23 23 24 24 23 23 23 19 18 18 18 20 19 20 21 20 20 21 22 20 20 21 22 22 20 21 21 21 22 24 26 26 25 24 24 26 27 24 23 24
26 25 25 25 23 23 23 23 21 17 17 15 15 18 18 18 20 19 19 20 20 19 20 20 21 20 19 19 20 20 20 20 21 22 23 23 22 22 22 22 24 26 24
26 28 28 27 22 21 21 21 15 13 13 12 14 16 17 18 19 18 18 18 19 19 19 19 19 19 19 20 20 20 19 19 20 20 20 21 22 23 23 22 22 22 25
29 29 29 25 21 20 16 13 12 12 10 12 15 17 17 18 18 18 18 19 19 19 19 18 19 19 19 19 20 21 21 21 20 20 21 21 22 23 23 25 25 25 24
27 25 23 20 17 11 11 10 11 9 11 15 15 16 17 17 17 17 18 18 18 19 19 19 19 19 19 19 21 21 21 21 21 21 21 22 23 23 22 22 24 27 26
18 15 14 15 12 6 8 9 8 10 13 13 15 15 15 16 16 17 18 18 18 18 18 18 18 18 18 19 20 20 19 19 21 23 23 25 24 23 22 22 22 21 22
12 10 12 8 5 4 6 7 8 10 12 13 13 13 14 15 16 17 18 19 18 18 17 17 17 17 18 18 19 20 19 20 20 22 22 23 22 23 24 24 24 25 27
10 10 7 4 4 3 4 5 6 10 10 11 12 13 14 16 17 17 17 17 18 17 17 17 17 18 19 19 19 20 20 21 23 23 24 24 24 24 24 24 25 24 23
10 6 4 3 4 4 5 5 6 8 9 11 12 13 14 15 15 16 17 17 18 19 19 21 21 21 20 20 19 21 22 23 25 24 27 26 25 24 24 24 24 24 24
7 4 3 3 5 4 5 5 4 6 9 10 11 12 14 15 16 16 16 17 19 19 19 17 18 19 18 18 17 19 20 19 21 25 22 18 18 18 20 23 23 23 23
Wind_Speed
3 9 11 11 12 12 15 17 16 13 14 8 7 5 4 3 3 4 5 5 5 6 8 8 10 11 13 12 14 8 12 18 17 6 6 5 5 9 11 12 12 16 14
6 9 12 13 15 17 16 15 15 14 12 9 5 3 4 3 3 4 4 4 5 5 6 7 8 9 10 13 14 14 7 9 15 10 3 7 3 9 9 11 13 17 13
8 10 13 14 14 17 17 16 14 14 10 9 11 8 7 6 4 3 2 2 4 4 5 6 6 7 8 9 9 10 11 10 9 15 7 5 5 9 4 8 11 18 15
5 9 14 15 16 14 12 14 14 13 10 11 7 7 5 4 3 4 3 4 4 4 4 4 4 5 5 7 6 6 6 5 10 4 9 8 3 4 9 5 8 17 16
5 12 14 14 11 14 15 14 13 11 9 7 7 7 6 4 4 4 6 4 5 5 4 3 3 3 4 4 4 5 6 5 4 5 4 4 4 3 2 8 13 8 10
2 8 10 10 11 12 14 15 15 11 10 10 8 9 9 8 7 5 4 3 2 2 3 3 2 1 2 3 2 2 2 2 2 1 1 1 1 2 2 3 8 13 7
4 7 14 15 14 15 14 14 14 12 10 10 9 9 9 8 7 5 4 3 2 2 3 3 2 2 2 1 1 1 1 1 1 1 2 3 4 2 2 3 5 5 5
7 5 9 14 15 15 15 14 14 13 10 11 11 10 9 9 7 6 4 3 2 2 3 4 3 3 3 3 2 3 3 3 3 4 5 4 6 5 6 4 3 6 4
10 7 7 12 14 14 13 13 13 12 11 12 11 10 9 9 7 6 4 2 1 1 2 3 4 4 4 4 4 5 6 5 5 7 7 7 7 7 9 9 8 6 5
10 9 8 10 11 12 12 12 14 15 13 12 11 10 8 6 5 4 4 3 3 3 4 5 5 6 6 5 5 6 6 7 8 8 9 9 8 9 9 10 11 12 12
9 10 11 12 13 14 15 17 17 17 14 11 9 9 8 7 7 6 6 6 6 7 8 7 8 8 8 7 7 9 9 10 11 9 10 13 10 11 11 9 11 13 13
9 10 15 16 18 16 15 16 15 15 11 9 10 9 9 9 8 8 7 7 8 8 8 9 9 9 9 8 8 11 9 10 13 13 12 14 10 12 12 12 14 14 14
12 14 14 16 16 15 13 12 11 11 9 9 9 8 8 7 7 7 7 8 8 8 9 8 9 10 10 10 10 10 12 12 13 14 15 15 13 15 13 13 14 13 13
11 13 14 12 12 12 12 10 9 8 9 9 9 9 9 9 9 9 9 9 9 10 10 10 10 11 12 11 11 11 12 14 13 14 14 14 15 17 15 14 14 14 14
12 11 12 10 10 10 9 8 8 8 8 8 8 8 7 6 7 7 9 9 9 8 9 10 11 12 10 8 10 11 13 14 14 14 15 14 16 19 18 13 13 15 15
10 9 8 8 8 7 7 6 5 6 6 7 8 8 9 8 8 8 9 8 8 9 9 10 11 12 9 14 19 19 15 14 16 17 15 14 18 19 22 25 27 21 17
10 8 7 6 6 5 4 5 5 6 8 8 8 9 10 11 12 12 12 13 12 11 11 12 12 12 12 17 18 19 16 14 11 11 11 13 13 17 15 19 24 26 28
9 7 4 3 2 3 4 4 5 6 8 10 11 10 11 12 11 11 11 12 11 12 13 13 13 13 13 18 19 20 16 13 12 12 13 16 17 16 19 19 21 21 22
6 4 2 3 4 4 2 3 7 9 10 10 10 9 9 11 10 11 11 11 11 11 12 12 13 14 15 19 19 19 14 14 15 14 15 16 17 20 22 21 21 21 21
4 4 5 5 2 1 5 7 9 9 10 8 9 9 9 10 11 11 11 8 9 12 11 12 13 15 16 19 20 17 12 14 15 16 17 22 22 24 24 20 19 21 21
6 6 6 2 2 7 5 6 7 10 9 8 10 10 9 10 11 11 10 11 12 11 14 13 14 15 15 16 19 19 15 15 16 17 17 15 22 24 25 25 19 18 17
2 2 2 1 3 4 3 7 10 9 9 10 10 11 10 10 9 10 12 11 11 12 14 13 15 14 13 16 17 21 22 22 18 16 15 16 23 25 26 25 25 26 25
1 0 1 4 8 5 2 8 8 10 10 10 11 11 11 10 10 11 11 11 10 11 13 12 13 16 14 13 19 22 23 23 20 16 20 27 28 28 25 25 26 26 17
1 1 3 6 9 8 7 8 11 9 10 11 12 11 11 12 10 10 10 10 11 11 13 14 16 16 14 14 15 15 17 21 20 20 20 21 23 25 22 20 16 14 14
0 2 5 8 10 10 12 12 9 7 9 9 10 11 10 12 13 12 12 11 12 13 15 14 15 15 14 15 21 23 19 17 18 22 15 13 12 13 14 15 14 14 15
2 4 6 7 10 11 14 14 11 7 8 9 9 10 11 11 12 12 15 16 16 18 19 23 22 16 21 24 26 26 26 25 25 16 7 15 13 14 14 13 13 13 16
Wind_Direction
224 183 183 177 170 172 170 169 163 157 146 136 137 131 150 128 120 122 108 101 91 71 66 59 49 40 42 33 26 10 17 22 4 20 7 13 45 52 34 28 32 26 22
146 155 160 164 174 171 170 166 166 159 161 148 139 132 145 133 126 136 117 117 109 92 75 64 55 48 45 37 31 32 20 20 26 27 356 7 343 5 19 23 24 17 18
168 165 165 168 162 168 170 169 167 162 156 138 120 95 94 94 110 131 144 131 109 93 85 75 68 59 55 49 41 38 42 24 26 45 53 13 353 332 338 7 22 13 15
157 169 171 170 173 171 161 157 153 148 146 148 145 153 154 157 164 154 143 126 86 92 92 87 77 67 62 57 50 48 51 52 29 7 46 72 57 7 329 341 356 2 10
199 175 180 176 169 156 155 146 136 127 126 126 131 134 126 113 111 100 110 90 59 65 66 66 73 61 55 59 56 47 47 57 61 40 6 24 53 76 23 306 326 350 348
144 160 155 150 148 143 141 139 133 125 123 123 125 134 139 139 132 120 114 94 72 60 43 39 44 42 24 35 59 75 62 60 85 106 107 67 358 341 359 308 320 324 321
77 156 159 159 154 150 145 139 134 127 124 114 97 93 98 97 99 99 97 80 48 38 15 9 350 319 323 334 2 340 311 241 254 239 247 225 231 218 222 260 294 312 314
53 129 157 156 155 150 148 143 140 131 114 104 99 94 94 97 96 98 91 76 50 344 339 341 329 315 308 298 293 294 288 256 245 251 239 242 242 227 224 227 243 309 303
34 70 130 149 149 147 148 146 132 120 114 110 104 96 97 94 94 97 100 92 78 329 332 323 308 290 272 265 261 261 270 271 268 260 255 252 253 237 235 232 223 214 289
34 54 91 127 131 129 122 116 120 116 112 106 100 94 87 76 73 72 53 18 349 334 321 311 296 291 282 269 260 265 264 264 271 267 263 263 258 259 245 234 228 223 231
50 58 72 82 93 98 102 108 108 107 99 91 83 73 56 45 41 37 22 4 348 340 329 319 310 303 295 283 266 266 268 262 269 265 262 267 264 261 256 247 239 236 225
82 80 96 98 94 92 97 102 101 94 90 82 72 57 42 29 23 14 8 360 351 347 336 327 318 310 303 295 281 280 273 268 273 275 273 271 267 259 252 246 248 240 231
111 108 100 95 104 104 100 92 86 83 78 70 60 46 33 23 9 357 352 354 349 342 333 325 314 309 302 298 289 278 275 272 269 269 269 267 265 271 259 252 250 242 243
117 112 111 118 116 112 113 109 93 78 60 50 36 21 8 360 353 350 350 349 344 335 330 322 314 305 298 294 288 280 278 274 267 259 256 257 254 260 259 255 249 244 243
145 142 131 130 124 116 97 81 65 51 37 30 17 1 348 349 342 342 335 330 328 324 319 314 306 297 292 285 282 273 271 271 269 257 251 249 248 256 256 253 249 243 247
162 146 149 140 118 103 91 76 48 27 17 4 349 345 343 342 332 323 322 324 322 321 316 306 300 297 293 297 297 292 283 275 273 275 271 255 262 270 274 273 269 248 234
156 150 131 131 128 111 87 55 21 5 356 343 336 341 342 336 332 333 334 328 324 320 314 308 302 295 289 300 298 293 288 285 286 279 278 276 271 271 266 263 266 266 268
147 139 127 116 125 61 46 20 6 354 343 339 338 337 330 322 319 318 313 312 313 312 306 298 292 290 293 301 302 301 301 296 278 268 262 264 266 257 261 260 257 249 248
131 124 129 161 138 94 32 350 347 349 342 327 322 315 310 302 302 302 298 298 300 296 290 288 284 288 288 296 296 297 296 289 285 277 267 262 262 263 270 268 264 259 254
150 175 158 160 181 64 20 350 333 325 312 306 298 296 296 295 294 294 296 290 290 287 289 295 292 289 293 294 298 298 281 276 275 275 269 271 273 274 274 267 260 257 255
124 132 132 177 21 10 3 311 299 304 311 307 302 296 290 287 281 284 285 291 290 287 292 294 290 285 281 285 294 297 291 280 276 273 272 267 272 278 280 276 267 254 255
143 86 83 60 335 354 326 307 306 312 308 300 296 296 294 295 295 290 291 288 290 293 294 292 292 288 280 287 291 294 293 289 287 282 275 264 274 278 279 281 276 273 271
150 109 28 332 331 342 307 300 301 313 304 298 296 298 299 300 299 293 288 291 289 285 287 287 289 289 290 282 287 295 295 293 291 284 277 279 282 282 281 278 277 275 271
199 160 320 317 312 321 311 282 300 305 301 296 297 301 300 300 300 299 291 284 282 282 283 286 286 282 281 287 287 281 283 283 284 279 277 277 278 278 277 278 272 267 261
241 273 301 309 309 317 312 310 303 295 287 289 292 295 297 294 296 289 279 276 267 261 267 276 296 298 290 288 288 293 295 290 282 283 280 268 267 270 271 270 259 256 253
246 294 306 305 310 318 311 309 307 290 283 292 293 292 293 289 288 283 290 288 284 284 285 305 303 298 296 301 300 303 304 301 303 307 313 305 286 278 277 271 255 253 253